NOAA 21 (JPSS-2)

Last updated on Fri Sep 11 2026 00:02:39 GMT+0000 (Coordinated Universal Time)

1 54234U 22150A 26253.53228079 .00000007 00000+0 23994-4 0 9999 2 54234 98.7092 190.8960 0001316 352.5420 7.5737 14.19548638198657
UTC large
Height (km)
Speed (km/s)
/
Latitude / Longitude
Inclination (degrees)
Orbital Period (minutes)
Azimuth
Elevation
Range (km)
Doppler Factor

Next 0 passes for location: London (51.5072 / 0.1276)

No passes found over London.
NOAA 21 (JPSS-2)